Location: Monteux
(44.0348°N, 4.9972°E)
Time: 12:29:32
(UTC+00:00)

IRS-1C Rocket - Visible Passes

Search period start: 20 April 2021 00:00
Search period end: 30 April 2021 00:00
Orbit: 800 x 806 km, 99.0° (Epoch: 20 April)

Date Brightness Start Highest point End Pass type
(mag) Time Alt. Az. Time Alt. Az. Time Alt. Az.
20 Apr 6.0 19:08:42 10° SSW 19:13:23 32° W 19:18:06 10° NNW visible
22 Apr 7.1 20:00:19 10° WSW 20:02:11 12° W 20:04:03 10° WNW visible
23 Apr 6.7 19:32:15 10° SW 19:36:08 21° W 19:40:02 10° NW visible
24 Apr 5.9 19:05:25 10° SSW 19:10:11 34° W 19:14:59 10° NNW visible
26 Apr 7.0 19:56:38 10° WSW 19:58:57 13° W 20:01:17 10° WNW visible
27 Apr 6.6 19:28:53 10° SW 19:32:55 22° W 19:37:00 10° NW visible
